Dewpoint
56 56 56 56 56 56 56 56 56 56 56 56 56 56 56 56 56 56 56 55 55 55 56 56 56 56 56 55 56 56 57 55 53 52 50 42 50 53 65 65 65 66 64 51 31 31 37 46 45 46 46 47 48 51 54 66 69 65 59 56 54 56 57 59 58 59 64 61 63 64 66 60 59 62 64 68 62 62 60 60 59 61 61 62 63 64 64 66
56 56 56 56 56 56 56 56 56 56 56 56 56 55 55 55 55 55 55 55 55 55 55 55 55 55 55 56 56 57 56 55 52 52 50 54 59 59 64 66 69 66 61 44 29 29 36 38 41 43 43 45 52 51 62 65 66 62 59 56 53 57 58 61 60 61 58 58 65 65 64 61 61 63 65 60 60 59 58 58 59 59 61 62 63 63 65 66
56 56 56 56 56 56 56 56 56 56 56 56 56 56 56 56 56 56 56 56 55 55 55 55 55 55 56 56 57 57 56 51 52 49 49 65 63 65 65 65 71 68 43 36 29 29 37 39 40 40 41 40 45 51 62 62 63 65 58 55 57 59 61 64 63 63 65 63 64 64 63 63 63 65 66 62 59 58 56 57 58 59 60 61 62 63 64 66
56 56 56 56 56 56 56 56 56 56 56 56 56 56 56 56 55 55 55 55 55 55 55 55 55 56 56 57 57 56 54 52 41 43 47 69 67 69 67 67 71 66 25 24 26 26 32 26 26 30 35 39 40 57 60 62 60 63 58 56 56 59 59 62 64 63 66 65 64 64 63 62 64 66 65 63 57 57 57 59 58 59 59 60 62 63 64 65
56 56 56 56 56 56 56 56 56 55 55 55 56 56 56 55 55 55 55 55 55 55 55 55 56 56 56 57 57 56 52 35 38 43 46 70 71 65 68 69 70 63 34 24 19 19 16 19 24 34 34 36 40 48 60 62 61 61 57 57 59 62 59 64 65 64 66 65 65 64 60 61 65 65 64 62 55 54 56 59 59 59 59 61 61 63 64 65
56 56 56 56 56 56 56 56 56 56 56 56 56 56 56 56 56 56 56 56 56 55 55 56 56 56 57 57 57 55 39 27 32 34 78 73 72 67 67 69 68 58 32 25 21 20 12 20 21 29 36 37 39 41 44 61 61 57 59 59 59 61 61 67 67 66 66 65 65 62 62 63 62 64 65 65 59 58 61 59 59 59 60 61 62 63 64 64
56 56 56 56 56 56 56 56 56 55 55 55 55 55 55 55 55 55 55 54 55 55 55 56 56 57 57 58 55 53 40 35 44 40 67 73 73 69 68 67 69 35 26 26 25 19 17 25 22 32 41 37 37 41 44 58 60 57 58 64 65 66 64 65 65 66 66 65 64 68 65 63 63 61 65 63 64 61 61 60 60 59 60 62 62 63 63 64
56 56 56 56 56 56 56 56 55 55 55 55 55 55 55 56 55 55 55 55 55 55 55 56 56 57 58 55 52 43 45 38 41 45 73 71 69 70 67 59 38 32 27 27 23 18 22 28 29 39 39 36 35 36 49 58 59 57 62 65 64 64 65 64 65 65 65 65 65 66 62 62 63 63 63 62 62 59 60 60 59 59 60 61 62 62 63 63
56 56 56 56 56 56 56 56 56 55 55 55 55 55 55 54 54 55 55 55 55 56 55 56 57 57 57 55 48 38 33 43 46 66 65 63 61 54 52 50 40 32 32 29 21 15 27 27 32 39 37 36 36 33 56 56 55 57 63 64 64 64 65 64 64 65 65 65 66 62 62 63 65 65 61 61 60 60 60 60 59 58 58 59 61 61 62 62
57 57 56 56 56 56 56 56 56 56 56 55 55 55 54 55 55 55 55 55 55 55 55 56 57 57 55 53 29 27 30 35 63 66 60 62 57 51 45 46 39 34 30 30 26 22 27 34 36 42 42 41 40 39 52 55 55 63 63 64 64 64 64 65 64 65 65 65 65 61 61 62 65 64 60 62 60 58 59 58 58 58 57 57 59 60 60 60
57 57 56 56 56 56 56 56 56 56 56 55 55 54 55 55 55 55 55 56 56 56 56 57 57 57 54 51 16 14 20 40 57 58 59 60 54 49 44 42 38 33 27 29 25 24 27 33 38 39 42 39 40 61 54 59 65 64 64 63 63 63 63 64 63 63 64 63 64 63 62 64 64 62 59 59 60 58 58 58 57 57 57 56 57 58 58 58
57 56 56 56 56 56 56 56 56 56 56 55 55 55 55 55 55 55 55 56 56 57 57 57 58 56 54 48 30 21 32 39 56 56 58 55 50 49 47 40 34 31 24 26 28 27 28 34 37 39 39 39 33 62 63 64 64 64 63 62 62 62 61 62 62 62 64 63 65 64 61 60 61 60 62 60 58 59 58 58 57 57 57 56 57 57 58 58
57 57 56 56 56 56 56 56 56 56 55 55 55 55 55 55 55 55 55 56 56 57 57 57 58 57 53 38 45 40 44 44 41 44 56 52 42 37 41 36 32 24 22 21 27 29 32 34 36 36 38 37 32 39 62 64 63 62 62 62 60 60 59 62 62 62 63 64 66 64 54 56 59 62 62 63 58 59 58 57 57 57 56 56 57 57 57 58
56 56 56 56 56 56 56 56 56 55 55 55 55 55 55 55 55 55 56 56 57 57 58 59 57 56 51 41 42 50 51 48 44 40 44 52 42 32 27 27 31 27 28 25 25 26 27 27 30 25 26 24 26 61 62 61 61 59 61 59 58 56 57 61 61 62 61 64 65 65 54 56 60 61 63 67 60 58 56 57 57 57 56 56 56 56 56 57
56 56 56 56 56 56 56 56 55 55 55 55 54 54 54 54 55 56 56 56 57 57 57 58 57 52 49 47 50 53 66 60 40 32 33 44 39 33 28 26 23 25 24 24 25 28 24 21 26 29 29 33 49 60 59 59 59 59 54 52 56 55 58 60 62 62 59 62 64 63 54 55 58 60 62 65 63 59 56 56 57 57 56 56 56 56 55 55
56 56 56 56 56 56 56 56 55 55 55 54 54 54 55 55 56 57 57 57 58 58 57 55 56 53 48 40 32 52 38 23 11 17 17 36 34 30 32 26 28 25 24 21 21 21 22 24 20 26 30 37 58 58 57 52 55 58 53 53 53 56 57 58 60 64 63 63 63 62 55 57 58 61 63 65 64 59 56 56 56 56 56 55 55 55 54 54
56 56 56 56 56 56 56 55 55 55 54 54 54 54 55 56 56 56 58 59 59 58 57 51 55 55 35 34 43 33 29 18 22 29 25 30 32 31 33 32 30 27 25 21 26 28 30 26 35 37 30 27 33 56 54 49 49 54 52 53 55 55 57 56 60 61 62 63 60 60 58 58 61 61 63 65 64 58 56 56 56 56 56 55 54 54 53 53
56 56 56 56 56 56 55 55 55 54 54 53 54 54 54 55 57 57 58 59 58 55 54 54 53 41 28 38 27 29 30 29 31 33 35 35 29 32 31 32 30 29 30 28 28 27 31 31 30 29 27 27 29 44 49 47 51 53 52 52 53 56 56 56 56 59 61 62 60 59 58 58 60 62 64 64 66 58 55 55 55 55 55 54 53 52 52 53
56 56 55 55 55 55 55 55 55 54 54 54 53 56 57 57 55 54 54 55 49 38 31 43 41 32 20 23 32 36 32 28 32 29 27 25 38 32 35 28 25 23 23 24 24 30 29 27 29 29 27 26 24 30 44 30 51 54 54 53 54 54 55 55 58 61 61 59 59 57 56 57 59 62 64 64 65 60 54 54 55 54 53 53 52 52 52 52
56 55 55 55 55 55 55 55 54 53 53 52 49 52 48 33 35 32 52 51 47 33 29 30 41 38 39 38 37 37 31 25 25 27 31 31 28 28 28 24 20 21 23 22 22 27 28 26 24 26 27 26 25 25 24 25 31 49 54 54 54 53 55 59 60 62 62 59 58 57 57 57 59 62 62 62 64 64 55 53 54 53 53 53 52 51 51 52
55 55 55 55 55 55 55 54 54 53 53 51 50 37 31 31 31 31 34 33 43 44 39 36 40 39 35 37 35 31 24 22 25 25 30 36 29 27 25 20 16 18 17 22 20 23 25 25 23 23 25 27 27 24 24 23 23 53 53 53 53 53 52 59 59 62 61 59 57 59 58 58 61 62 62 63 65 64 64 54 52 52 53 53 52 52 51 51
55 55 55 54 54 54 54 54 53 53 52 49 47 30 33 33 34 35 35 32 33 34 41 38 40 40 42 41 41 36 22 19 18 20 24 30 28 22 25 16 17 17 17 14 17 17 24 21 21 22 23 25 28 25 22 21 21 44 52 53 52 53 58 60 60 62 61 59 56 58 57 59 59 61 63 63 63 64 65 64 62 52 52 54 53 52 52 51
56 55 55 54 54 54 53 53 53 51 51 43 33 33 32 34 40 40 36 33 32 34 34 34 36 38 37 40 30 27 20 20 21 22 27 29 25 26 22 19 21 20 17 14 14 20 14 16 20 22 22 20 20 23 22 21 20 49 53 51 51 54 54 51 58 61 59 59 57 58 57 58 60 60 60 63 64 64 65 65 66 66 55 54 53 53 52 51
55 55 55 54 54 53 54 53 51 52 50 42 39 36 34 37 38 37 35 32 32 34 34 33 33 33 36 31 25 17 17 20 22 21 33 26 23 26 24 21 21 23 18 14 11 11 11 13 19 17 19 17 16 17 19 17 18 50 51 51 52 56 54 53 57 60 61 60 59 57 55 54 56 56 59 61 64 64 64 65 65 65 66 64 63 60 54 52
55 55 55 54 53 53 52 51 47 49 47 44 43 42 41 40 40 39 34 34 35 33 36 30 28 27 25 27 26 18 22 27 23 28 33 25 24 24 24 27 25 24 21 21 14 11 9 10 13 10 12 14 13 12 12 17 18 39 51 49 51 56 55 58 58 57 56 54 57 55 50 50 55 57 58 60 62 62 63 63 62 62 64 64 61 57 57 56
55 55 54 54 54 52 52 39 45 47 43 33 32 34 38 40 41 42 37 35 30 33 18 26 24 21 27 21 24 25 24 24 25 30 31 26 43 23 28 23 23 20 19 23 18 12 12 14 9 8 8 8 9 9 10 13 15 40 45 51 51 56 57 57 57 56 52 51 55 56 49 47 55 55 57 60 60 60 63 62 62 63 63 63 63 60 56 55
54 54 54 53 53 52 32 29 46 46 27 29 34 42 42 40 47 38 32 27 14 17 17 19 18 18 27 25 22 21 20 24 28 32 32 47 27 34 22 22 24 26 24 23 26 21 17 15 8 6 7 6 6 6 7 10 16 33 45 51 56 56 57 57 56 54 52 56 56 56 54 48 49 54 57 60 59 59 60 61 62 63 63 63 63 64 59 56
54 54 53 52 52 51 44 47 45 36 28 28 44 43 42 43 44 40 33 18 11 15 13 13 14 21 21 21 19 18 21 26 23 25 31 31 28 24 23 22 21 21 22 24 19 22 22 21 21 12 7 4 4 6 7 10 14 22 39 54 55 56 56 56 55 52 53 53 51 54 55 47 47 54 58 60 58 58 58 59 61 62 63 63 62 63 63 58
54 53 53 52 52 50 51 50 47 38 39 46 45 44 43 44 37 35 31 19 18 14 17 14 17 18 19 19 19 21 21 27 24 22 27 27 27 24 21 22 23 22 24 22 19 20 23 22 21 14 6 3 5 5 7 9 8 19 56 55 55 55 55 55 52 52 50 47 48 52 54 46 44 55 56 59 58 57 58 58 60 61 62 62 62 62 64 61
54 53 53 52 50 50 51 51 46 45 48 45 45 45 42 39 36 34 25 21 15 10 14 14 12 10 17 16 16 17 19 22 25 26 27 24 25 25 24 26 24 22 21 24 23 21 22 35 37 16 7 5 5 6 7 10 10 55 54 50 49 49 50 49 52 51 45 41 45 51 54 48 41 52 55 55 56 57 57 57 58 61 62 61 61 62 63 63
53 52 51 51 47 50 49 34 38 47 48 47 45 37 40 39 37 32 23 15 15 12 10 10 9 13 14 14 12 13 22 23 19 26 23 25 25 27 27 23 26 24 25 24 22 22 22 22 23 28 35 24 11 13 27 10 43 52 52 51 49 47 50 49 49 49 42 40 43 50 53 51 43 44 55 56 56 57 56 56 57 60 61 61 60 61 63 64
51 50 51 49 50 53 38 24 32 46 48 46 40 36 35 29 31 21 22 28 7 4 9 5 10 19 13 15 13 14 18 19 22 22 22 27 29 25 27 24 31 21 22 22 19 21 19 20 21 19 46 23 25 22 22 37 50 51 49 47 43 41 43 40 44 42 41 41 41 49 52 49 49 49 52 55 55 56 58 57 57 59 60 61 60 60 63 65
50 50 50 51 52 50 51 46 49 49 46 43 37 37 33 30 14 27 25 15 8 9 4 10 10 13 14 14 16 19 21 18 21 22 23 25 26 27 28 25 25 24 23 27 21 19 18 21 22 21 21 29 22 17 22 36 45 48 46 44 41 37 34 35 38 39 38 39 38 50 52 47 48 47 50 52 55 56 57 58 57 59 60 61 60 60 62 65
50 50 47 51 51 51 50 53 51 49 44 47 36 35 34 22 23 53 26 9 6 9 9 10 11 12 15 14 16 18 18 21 21 23 26 29 28 28 28 27 26 23 23 27 18 19 17 20 23 21 20 23 23 23 19 32 43 45 46 42 42 38 39 36 37 38 38 38 48 51 47 43 44 43 54 52 54 57 58 58 58 58 59 61 60 59 61 65
49 49 49 51 52 52 52 51 50 52 39 37 36 35 28 25 30 24 10 8 9 8 5 9 13 11 12 15 17 19 21 21 23 27 26 26 25 28 28 25 26 23 23 18 28 27 20 21 21 24 24 24 24 26 25 24 31 26 38 40 40 38 41 38 38 40 37 47 47 47 44 47 45 50 56 58 57 56 58 58 58 58 59 60 60 59 60 63
48 50 50 50 51 51 52 52 49 48 37 35 38 31 28 31 26 19 8 11 10 6 3 14 12 11 13 14 20 17 21 20 21 28 27 26 28 28 29 28 25 25 21 21 25 21 28 22 24 23 32 26 26 28 26 23 23 25 31 34 41 43 35 36 41 37 44 44 44 47 45 45 50 51 56 58 57 56 57 57 57 56 58 60 59 59 60 62
46 51 47 50 52 53 52 50 49 42 39 35 33 28 33 34 32 22 41 11 7 6 14 11 12 12 16 13 15 14 19 20 20 23 22 26 24 28 25 21 27 23 21 20 19 24 21 19 22 26 26 27 28 26 25 25 28 22 26 27 28 30 33 30 24 30 31 35 34 45 44 45 44 43 56 58 57 56 56 57 57 56 57 58 59 59 60 61
49 50 54 54 45 51 50 49 43 39 37 36 33 45 42 31 34 28 20 11 7 13 17 17 10 15 18 16 12 14 17 18 18 25 28 27 23 26 22 21 22 22 20 23 21 26 23 22 24 28 28 28 29 27 26 29 28 22 28 30 26 31 28 30 27 22 21 26 36 42 45 45 46 46 53 57 56 56 56 57 57 56 57 57 59 60 61 61
51 44 33 38 47 49 48 48 40 39 36 33 35 32 45 37 36 31 30 19 10 12 7 13 10 17 17 18 16 17 17 18 20 26 24 23 23 26 22 22 20 21 20 24 22 29 29 22 29 33 30 32 28 29 28 30 32 28 29 34 30 24 28 26 23 31 27 25 37 39 41 40 48 49 53 56 57 57 57 57 57 57 57 57 58 60 60 61
40 26 28 36 45 49 49 42 38 34 31 29 33 36 33 30 29 30 27 15 6 6 14 13 15 14 20 19 17 15 18 20 19 21 22 24 22 24 21 24 20 19 23 26 23 29 27 31 27 29 32 32 31 29 29 30 31 30 34 34 34 30 24 25 29 24 25 30 36 37 36 41 46 54 55 54 58 59 58 58 58 58 58 58 58 59 60 61
49 31 30 35 45 48 42 37 35 33 33 35 35 31 31 29 29 28 25 23 10 10 8 10 11 14 17 19 17 20 21 17 20 23 27 18 19 19 21 22 22 20 23 25 22 25 29 30 25 31 30 35 39 34 33 34 33 37 29 37 38 33 25 18 17 24 28 33 35 35 35 41 46 60 59 58 59 60 60 59 59 59 59 59 60 60 60 61
33 21 22 35 45 41 37 35 34 36 30 30 25 29 29 42 33 29 18 13 10 7 14 11 16 16 19 21 19 21 22 24 21 19 18 16 18 17 21 22 17 22 21 21 22 24 28 33 31 32 30 35 35 37 39 37 37 38 41 43 43 34 24 21 15 19 21 26 42 39 34 35 53 59 60 60 60 60 60 61 60 61 60 60 60 61 61 61
27 22 31 37 35 33 30 30 44 44 28 28 30 28 28 27 30 24 14 11 11 11 7 8 13 17 19 18 19 22 23 21 22 24 19 19 17 18 20 22 22 25 24 20 23 19 49 32 30 34 37 39 39 40 38 39 39 37 39 45 45 44 44 33 20 23 24 30 34 37 33 37 54 59 60 61 62 62 62 60 60 61 62 62 61 61 61 62
33 34 35 38 41 34 30 28 29 29 30 32 29 25 27 25 24 21 16 10 11 18 6 7 11 13 14 19 16 23 24 21 22 24 23 25 23 22 26 23 23 23 22 19 23 23 23 29 31 31 34 39 37 36 35 37 40 42 40 45 47 47 46 40 33 35 25 33 31 32 27 38 54 58 59 60 61 62 62 63 61 61 61 62 62 63 64 65
40 41 40 42 49 31 28 29 30 29 29 26 25 26 24 19 19 20 14 7 24 9 8 8 11 10 9 17 24 26 27 22 27 25 24 25 25 31 25 25 25 25 31 34 47 28 24 33 36 33 31 31 29 31 33 34 37 39 42 45 48 49 48 41 25 38 21 35 41 34 35 45 53 56 56 59 61 61 63 63 63 61 61 62 63 64 64 65
36 27 32 40 43 39 38 36 30 35 32 34 37 35 22 17 13 17 12 13 14 13 8 11 6 5 11 18 22 24 24 26 24 30 29 26 28 26 26 25 25 34 55 49 51 31 30 41 40 37 36 34 38 41 42 43 40 41 43 46 48 50 50 46 41 42 37 39 40 42 44 48 51 55 55 57 60 61 62 63 62 62 62 63 63 64 64 64
46 36 40 40 42 42 43 41 44 45 43 40 36 31 31 30 21 14 24 14 12 12 13 10 10 13 14 20 22 25 30 26 31 29 31 31 31 27 30 30 27 49 54 41 49 34 37 32 36 41 37 35 40 43 41 44 41 43 45 47 49 50 50 48 46 43 45 37 31 49 52 50 51 55 57 58 60 62 62 62 62 62 62 63 63 64 65 64
40 41 45 45 38 36 42 40 44 45 46 40 37 33 30 27 19 18 13 15 20 21 8 14 15 16 16 19 23 22 30 33 33 29 33 32 30 27 26 30 26 35 41 25 39 31 33 32 35 33 35 37 40 42 41 44 44 47 48 48 49 50 51 49 48 49 43 36 40 50 52 51 53 55 58 60 61 62 61 62 62 62 62 63 63 63 63 63
49 49 45 47 42 44 44 44 46 47 41 42 42 40 32 28 21 14 13 17 21 22 18 19 16 15 22 24 22 23 32 25 26 32 31 29 31 31 28 27 25 31 29 29 29 39 31 34 37 32 36 38 40 42 44 46 47 45 46 49 49 50 50 51 51 51 50 50 51 51 52 52 54 56 57 60 62 61 61 61 61 62 62 62 63 63 63 63
48 47 47 50 48 47 47 47 46 43 40 44 35 34 40 34 33 30 19 20 23 20 26 14 14 22 26 29 35 25 31 29 27 28 34 29 22 31 30 27 25 30 30 29 26 29 25 28 47 38 37 39 41 44 45 44 44 43 43 46 49 49 50 51 51 52 51 49 50 51 51 52 55 58 59 61 61 61 60 60 61 62 62 62 62 63 63 63
45 50 50 48 44 45 49 46 44 43 39 38 42 42 41 37 34 35 29 22 16 19 18 14 19 26 30 28 29 28 29 33 29 20 34 24 21 25 25 26 27 27 29 28 31 32 30 26 39 37 35 36 39 43 43 43 42 44 43 43 48 49 49 50 50 51 51 50 49 50 50 51 55 58 59 59 59 59 59 60 61 61 62 63 62 61 62 64
49 49 52 48 43 51 45 46 46 40 38 38 45 43 41 39 37 36 31 26 29 24 16 14 19 25 32 29 31 29 25 33 23 17 31 28 20 25 28 26 26 27 30 29 32 25 34 34 29 31 27 29 33 39 40 43 39 39 42 42 45 50 50 51 52 52 52 52 48 47 49 54 56 58 57 57 58 59 60 60 61 62 62 62 62 62 63 63